Home > Weather > Bunbury > Past weeks

Flag for Australia Weather for the Past 2 Weeks in Bunbury, Western Australia, Australia

Now
54 °F

Scattered clouds.


Feels Like: 53 °F
Forecast: 57 / 62 °F
Wind: 5 mph from North

Location: Belmont Perth Airport

Current Time: Apr 29, 2016 at 8:34:06 AM

Latest Report: Apr 29, 2016 at 7:30 AM


Visibility: N/A

Pressure: 29.98 "Hg

Humidity: 100%

Dew Point: 54 °F

Location of BunburyLocation

Historic Weather in Bunbury — Graph

°F

Bunbury Temperature Yesterday

Maximum temperature yesterday: 70 °F (at 11:00 AM)
Minimum temperature yesterday: 50 °F (at 12:00 AM)
Average temperature yesterday: 59 °F

High & Low Weather Summary for the Past Weeks

 TemperatureHumidityPressure
High90 °F (Apr 16, 2:00 PM)100% (Apr 17, 12:00 AM)30.36 "Hg (Apr 17, 12:00 AM)
Low50 °F (Apr 27, 6:00 AM)26% (Apr 23, 4:00 PM)29.77 "Hg (Apr 26, 6:00 AM)
Average66 °F73%30.06 "Hg
* Reported Apr 14 7:00 AM — Apr 29 7:00 AM, Bunbury, Weather by CustomWeather, © 2016

Note: Actual official high and low records may vary slightly from our data, if they occured in-between our weather recording intervals... More about our weather records

Advertising

Bunbury Weather History for the Previous 24 Hours

Scroll right to see more
 ConditionsComfort  
Time TempWeatherWind HumidityBarometerVisibility
7:00 AM
Fri, Apr 29
54 °FPartly sunny.7 mph94%29.98 "HgN/A
6:00 AM52 °FSunny.5 mph100%29.98 "Hg10 mi
5:00 AM54 °FClear.5 mph94%29.98 "Hg10 mi
4:30 AM54 °FClear.5 mph100%29.98 "Hg10 mi
4:00 AM55 °FClear.3 mph94%29.98 "Hg10 mi
3:30 AM57 °FClear.5 mph94%29.98 "Hg10 mi
3:00 AM57 °FClear.5 mph94%29.98 "Hg10 mi
2:30 AM57 °FClear.5 mph94%29.98 "Hg10 mi
2:00 AM57 °FClear.5 mph94%29.98 "Hg10 mi
1:30 AM57 °FClear.3 mph94%29.98 "Hg10 mi
1:00 AM57 °FClear.6 mph94%29.98 "Hg10 mi
12:30 AM59 °FClear.6 mph94%29.98 "Hg10 mi
12:00 AM59 °FClear.6 mph88%29.98 "Hg10 mi
11:30 PM
Thu, Apr 28
59 °FClear.6 mph94%29.98 "Hg10 mi
11:00 PM61 °FPassing clouds.1 mph88%29.98 "HgN/A
10:30 PM61 °FPassing clouds.5 mph83%29.98 "HgN/A
10:00 PM61 °FPassing clouds.5 mph88%29.98 "HgN/A
9:30 PM61 °FPartly cloudy.3 mph83%29.98 "HgN/A
9:00 PM61 °FClear.3 mph83%29.98 "Hg10 mi
8:00 PM63 °FPassing clouds.6 mph73%29.98 "HgN/A
7:00 PM64 °FPassing clouds.9 mph73%29.98 "HgN/A
6:30 PM64 °FPassing clouds.13 mph68%29.95 "HgN/A
6:00 PM66 °FPassing clouds.12 mph64%29.95 "HgN/A
5:00 PM66 °FPassing clouds.15 mph68%29.95 "HgN/A
4:00 PM63 °FScattered showers. Broken clouds.13 mph88%29.95 "HgN/A
3:00 PM66 °FScattered showers. Scattered clouds.17 mph68%29.92 "HgN/A
2:00 PM68 °FScattered showers. Scattered clouds.16 mph64%29.92 "HgN/A
1:30 PM64 °FScattered clouds.14 mph83%29.95 "HgN/A
1:03 PM68 °FSprinkles. Scattered clouds.20 mph60%29.95 "HgN/A
12:30 PM66 °FScattered clouds.17 mph64%29.95 "HgN/A
12:03 PM66 °FSprinkles. Partly sunny.18 mph56%29.95 "HgN/A
11:30 AM68 °FScattered showers. Partly sunny.14 mph46%29.95 "HgN/A
11:00 AM70 °FPartly sunny.15 mph50%29.95 "HgN/A
10:30 AM66 °FPassing clouds.14 mph60%29.98 "HgN/A
10:00 AM64 °FScattered showers. Scattered clouds.6 mph64%29.98 "HgN/A
9:30 AM64 °FScattered showers. Scattered clouds.6 mph73%29.98 "HgN/A
9:00 AM59 °FSprinkles. Scattered clouds.7 mph88%30.01 "HgN/A
8:30 AM55 °FScattered showers. Scattered clouds.7 mph94%30.01 "HgN/A
8:00 AM55 °FScattered clouds.7 mph88%29.98 "HgN/A
Weather by CustomWeather, © 2016

See weather overviewHow to use our weather pages